Theta_e
287 287 286 286 285 286 285 286 286 285 284 285 285 285 285 285 286 286 286 286 287 286 285 284 284 284 284 284 284 283 282 282 282 281 281 281 281 281 280 279 278 278 278 277 277 277 277 277 277 277 277 277 276 277 277 276 276 276 276 277 277 277
287 286 286 285 285 285 284 285 285 284 285 285 285 285 285 285 285 285 285 285 286 285 284 284 284 284 284 283 283 282 281 281 281 280 279 280 280 279 278 278 277 277 277 277 277 276 276 276 276 276 276 275 275 275 276 276 275 275 274 275 276 278
286 286 285 284 284 284 284 285 284 284 285 284 285 285 284 284 284 285 285 285 284 283 283 283 283 283 283 282 282 281 281 281 281 279 279 279 278 278 277 277 276 276 276 276 276 276 276 275 275 275 275 275 274 274 275 275 275 274 274 274 274 275
286 285 285 284 284 284 283 284 284 283 284 284 284 284 284 283 284 284 284 284 283 283 283 283 282 282 282 281 281 280 280 279 279 279 278 277 277 277 277 276 276 276 276 276 275 275 275 275 275 274 274 274 274 273 276 276 273 273 273 273 273 273
286 285 285 284 283 283 283 283 283 283 283 283 283 283 283 283 283 284 283 283 283 282 282 282 282 282 281 280 279 279 279 278 278 278 277 277 277 276 276 275 275 276 275 275 275 274 275 275 274 274 274 273 273 272 272 274 273 273 273 273 273 273
285 285 284 283 283 283 283 283 283 283 283 283 283 283 283 283 283 283 283 283 282 282 282 281 281 281 280 279 278 278 277 277 277 277 277 276 276 276 275 275 275 275 274 274 274 274 273 273 273 273 273 273 273 272 272 272 272 273 273 273 272 272
285 285 284 284 283 283 283 282 283 283 283 283 283 283 283 283 283 283 283 282 282 282 281 281 281 280 279 278 277 277 276 276 276 276 275 275 275 275 274 275 274 274 274 274 273 273 273 273 273 273 272 272 272 272 272 272 273 273 273 273 273 275
286 285 284 284 283 283 283 283 283 283 283 283 283 283 283 283 283 283 282 282 282 281 281 280 280 279 278 277 276 276 276 275 275 275 274 274 274 273 273 272 273 273 272 272 272 272 272 272 272 272 271 271 272 272 272 273 273 273 273 272 273 273
285 285 284 284 283 283 283 283 282 282 283 282 283 283 283 283 283 282 282 282 281 281 280 280 279 279 278 277 276 275 275 275 275 274 273 273 273 272 272 272 272 273 271 272 272 271 271 272 271 271 271 271 272 272 273 273 272 273 272 273 273 273
286 285 284 284 283 283 283 283 283 283 282 282 283 283 283 283 282 282 282 281 281 281 281 280 279 278 278 276 276 275 276 275 274 273 273 273 272 272 272 271 272 271 271 271 271 271 271 271 271 271 270 271 272 272 272 272 272 272 272 272 273 272
286 285 285 284 283 283 282 282 282 282 282 282 283 283 283 283 282 282 281 281 280 280 280 280 279 278 277 276 275 275 274 274 273 273 272 272 272 273 271 271 271 271 271 271 271 271 271 271 271 271 270 270 272 273 273 273 272 272 272 272 272 272
287 286 285 284 283 283 282 282 282 282 282 283 284 284 284 283 282 281 281 280 280 281 280 280 279 278 277 276 276 275 274 273 272 272 271 271 270 270 270 270 270 270 270 270 270 270 271 271 271 273 274 275 274 273 274 274 273 272 272 271 271 271
287 286 285 285 284 283 283 283 283 282 283 283 283 283 284 283 282 281 281 280 280 280 279 279 277 276 276 276 275 274 273 272 271 270 270 269 268 269 269 269 270 269 270 270 269 269 270 270 271 274 275 276 276 275 274 273 273 273 273 272 271 270
288 287 286 285 285 284 283 283 283 283 283 283 283 283 284 283 282 281 281 280 280 280 279 278 277 277 276 275 274 273 272 271 270 270 269 268 268 268 267 268 269 269 269 269 269 268 269 269 274 275 275 276 276 276 275 274 273 273 273 273 272 272
289 288 287 286 285 284 284 284 284 283 284 283 284 283 283 282 281 281 281 281 281 280 280 279 278 277 275 274 273 271 270 270 270 269 268 268 268 267 267 269 269 268 268 268 268 267 267 268 273 275 275 275 276 276 276 274 273 272 272 273 273 272
289 288 287 287 286 285 285 285 285 285 284 284 283 282 282 281 281 281 281 281 281 281 279 278 277 276 275 273 271 270 269 269 269 268 268 268 268 268 267 266 267 267 267 267 267 266 267 267 271 274 275 275 276 276 276 274 273 273 272 272 272 271
289 288 287 287 286 286 285 285 285 284 283 283 282 282 281 281 281 281 281 281 280 279 279 278 276 275 273 272 270 269 269 268 268 268 268 268 268 267 267 267 266 266 265 264 265 265 265 266 272 274 275 275 276 276 276 274 273 272 272 272 271 270
289 288 288 288 287 286 286 285 285 284 284 283 282 282 281 281 281 281 281 280 279 278 278 277 275 274 272 271 270 269 269 268 268 268 268 267 267 266 266 266 266 266 265 264 263 263 264 265 272 273 274 275 275 275 273 272 271 271 270 269 270 270
288 287 287 287 287 286 285 285 285 284 283 282 282 282 281 281 280 280 281 280 279 279 278 277 275 273 272 270 269 268 268 268 267 267 267 266 268 267 266 265 265 264 264 263 263 263 263 263 268 272 274 274 275 274 271 270 270 270 269 270 270 271
286 286 287 286 285 285 285 285 284 284 282 282 282 281 280 280 280 281 281 280 279 279 278 277 275 274 272 270 270 269 269 269 268 267 267 267 266 267 265 264 263 262 263 263 263 263 261 262 266 271 273 274 274 273 271 270 269 269 269 269 270 270
286 285 285 285 284 284 284 284 284 283 282 282 281 281 280 280 281 281 281 280 280 279 277 276 275 274 272 271 271 270 269 269 268 267 266 266 265 265 264 264 263 261 261 262 262 266 264 262 265 270 272 274 274 273 271 270 269 268 269 269 269 271
283 283 283 284 284 283 283 283 283 282 282 281 281 280 280 281 281 281 281 281 279 278 276 275 275 274 273 272 270 269 269 268 266 266 266 265 265 264 263 262 262 262 262 262 262 262 263 263 262 264 270 272 273 274 272 270 269 268 268 269 269 269
283 283 283 282 282 282 282 282 282 282 281 280 280 280 281 281 281 281 281 279 278 276 275 275 274 274 273 272 270 269 268 267 267 265 264 264 263 263 262 262 261 261 261 261 262 261 262 262 262 263 270 272 273 274 274 271 270 270 269 269 269 270
280 281 281 281 282 282 282 282 282 281 280 280 280 281 282 281 280 280 278 278 277 276 275 274 273 272 271 269 268 267 266 265 265 264 263 263 262 262 261 260 260 260 260 261 261 261 261 263 266 262 267 271 273 274 275 272 271 271 270 269 270 270
280 280 280 280 280 280 281 281 281 280 280 279 281 282 281 279 278 278 278 277 276 275 274 272 271 270 269 267 267 267 265 264 263 262 262 262 261 261 260 259 259 259 260 260 261 262 262 262 263 268 266 270 272 274 274 275 273 274 273 271 271 271
279 279 278 278 279 279 280 281 280 279 279 280 282 278 276 277 277 277 276 276 275 273 271 270 268 267 266 266 265 265 264 262 261 261 261 261 261 260 259 259 259 259 259 260 261 262 262 263 262 266 270 269 272 274 274 275 275 276 273 273 272 272
279 278 276 276 276 277 278 279 279 278 278 280 278 278 277 277 276 276 275 274 273 271 269 267 266 265 264 264 265 264 263 261 260 260 260 260 260 260 260 260 261 260 260 261 261 262 263 263 263 263 267 271 272 274 274 275 275 276 276 273 273 274
277 276 275 274 274 275 275 276 277 278 279 277 275 276 275 275 274 274 274 273 271 269 267 265 263 262 262 262 263 264 263 262 261 261 261 260 260 261 261 262 262 262 262 262 262 262 263 263 263 264 265 269 271 272 273 274 274 274 275 274 274 275
276 276 274 274 272 273 273 274 275 278 276 272 274 274 274 273 274 273 271 271 269 266 266 265 264 262 261 261 261 262 262 262 261 262 262 261 261 261 262 262 262 262 262 262 261 261 262 262 263 263 263 265 265 265 268 270 271 273 274 273 272 273
276 276 275 276 275 274 273 274 275 276 273 271 272 271 272 272 273 273 272 270 268 266 265 265 264 262 261 261 261 262 262 262 262 262 263 262 263 262 263 263 263 263 263 262 261 261 261 262 261 263 264 264 264 265 266 268 270 270 270 270 271 271
276 276 276 277 277 275 273 273 274 272 273 271 268 270 272 272 269 269 267 266 266 264 264 264 263 262 261 260 260 261 262 262 262 263 263 263 265 265 265 264 264 264 264 264 263 262 263 263 262 264 269 267 270 268 266 268 269 270 270 272 273 271
276 276 276 277 274 274 274 273 273 270 270 269 266 269 271 270 268 267 267 266 266 264 263 263 262 262 262 261 260 260 260 265 267 265 263 263 268 271 272 270 266 265 265 264 265 265 264 264 263 270 272 272 273 274 274 273 273 274 273 274 275 272
275 273 273 275 272 274 274 273 270 269 268 269 268 268 268 268 268 267 266 265 265 265 263 263 262 262 262 261 261 260 261 259 264 270 271 270 269 271 272 273 273 272 271 266 264 267 271 270 271 271 272 273 274 274 275 275 275 276 275 275 271 267
272 274 275 274 273 274 272 270 268 269 269 268 267 268 268 268 269 268 267 266 265 265 264 263 263 262 262 261 262 261 261 261 260 262 269 272 272 271 272 272 273 273 273 272 269 266 266 270 273 273 274 274 275 275 275 276 276 275 275 275 274 266
275 274 273 272 271 270 270 270 267 267 267 267 267 267 268 267 268 268 267 266 265 264 264 263 263 262 262 262 261 261 261 261 262 262 262 267 273 273 273 273 273 273 274 274 274 274 271 270 272 273 274 274 274 275 274 274 275 275 275 275 269 264
274 274 273 271 270 271 268 269 266 266 266 265 266 266 267 267 267 267 267 266 265 264 263 263 263 262 262 262 262 261 261 261 262 262 262 262 263 268 271 273 274 274 274 274 275 274 275 275 275 275 274 274 274 274 274 273 272 274 275 272 265 263
271 270 270 271 269 268 268 268 265 263 264 264 265 265 265 265 265 264 264 264 264 264 263 263 263 262 262 261 261 261 261 261 261 261 261 261 262 262 263 262 265 270 273 271 271 272 273 273 274 274 273 273 273 273 273 273 270 268 268 267 263 262
269 268 267 268 267 267 267 266 261 260 262 262 263 263 264 264 264 264 264 262 264 263 263 262 262 262 262 261 261 260 260 260 260 260 260 260 259 260 259 260 261 262 266 269 270 271 271 271 272 272 272 272 272 272 272 268 267 265 265 264 262 260
Wind_Speed
11 10 9 8 8 8 7 7 7 7 6 7 9 10 9 9 7 7 7 7 7 7 8 8 8 7 7 6 6 6 6 6 6 5 5 5 4 5 4 4 4 4 4 4 4 4 4 4 4 4 4 4 3 4 4 4 4 4 4 4 3 3
11 11 11 11 11 9 8 7 7 8 8 8 7 7 7 8 8 8 9 7 8 9 8 7 7 7 7 6 7 7 6 5 5 5 5 5 5 4 5 4 4 4 4 3 4 4 3 3 3 3 3 3 3 4 4 3 4 4 4 4 4 3
11 9 8 8 7 6 7 7 9 8 8 8 8 11 9 9 8 8 8 9 9 9 8 8 8 7 7 7 6 6 5 5 5 5 5 5 5 4 5 4 4 3 3 3 2 2 1 2 2 3 3 3 3 3 3 3 3 3 3 3 4 3
10 8 7 6 8 8 9 8 7 7 8 8 8 8 8 9 8 8 8 7 9 8 9 8 7 7 7 7 6 6 5 5 6 5 5 5 4 4 4 4 4 3 3 1 1 1 1 1 1 2 2 2 2 3 2 3 3 3 3 3 3 3
11 11 11 11 11 10 9 8 8 8 8 8 7 9 8 8 8 7 8 9 9 8 8 8 8 7 7 7 6 6 6 5 5 5 6 5 4 4 4 4 3 2 2 1 1 2 1 1 1 2 2 1 1 1 2 2 2 2 2 3 3 3
10 10 12 12 11 11 11 9 7 7 7 8 8 10 9 8 8 8 8 8 8 8 8 8 8 8 7 7 6 7 6 6 5 4 5 5 4 5 4 3 2 1 2 1 2 1 1 1 1 1 1 1 0 1 1 2 2 2 2 2 3 3
14 15 13 13 11 10 10 10 10 9 9 8 10 9 9 8 8 9 8 9 10 9 9 8 8 8 7 7 7 7 7 6 6 4 5 5 4 4 4 4 3 1 2 2 1 1 0 0 0 0 1 1 1 1 2 2 1 2 2 3 3 4
14 12 12 11 11 12 12 11 11 10 9 10 8 10 9 9 8 9 10 9 10 10 9 9 8 8 8 8 7 8 7 7 6 5 4 4 5 4 4 3 2 3 1 2 1 1 1 0 0 1 1 0 1 1 2 2 2 2 2 3 3 3
14 15 13 12 12 12 12 12 11 11 10 10 9 9 10 10 10 9 10 9 9 10 9 9 9 9 8 8 8 7 7 7 6 5 5 4 4 4 4 4 2 1 3 1 2 1 1 0 1 1 0 1 2 3 3 3 3 3 3 3 3 3
15 14 14 13 13 12 11 11 11 12 12 12 10 10 10 9 10 10 10 10 10 10 10 10 8 8 8 7 7 7 7 7 6 5 4 4 4 4 4 4 4 2 3 2 1 1 1 0 1 1 2 3 2 2 3 3 3 3 3 3 4 3
16 16 16 16 14 14 14 13 12 11 10 10 11 11 12 11 11 11 11 10 11 10 9 8 7 8 8 8 8 9 8 7 6 5 5 4 3 4 3 3 3 2 3 3 3 1 0 1 1 1 2 1 1 1 2 2 3 3 3 3 3 4
15 15 14 13 16 16 14 14 14 14 14 13 12 12 11 11 11 12 11 11 11 9 9 9 8 8 8 9 9 9 8 8 7 7 5 4 3 3 3 3 2 3 3 3 2 2 2 1 1 3 3 3 2 2 3 3 3 3 3 3 4 4
13 12 13 15 17 18 17 15 14 12 12 13 14 13 13 12 12 12 12 11 9 9 9 9 8 9 9 8 8 7 8 8 7 6 5 4 4 4 3 3 4 3 3 3 2 2 2 2 2 5 4 3 4 3 3 3 4 4 4 4 4 4
15 16 18 18 18 17 15 14 14 15 15 15 15 14 12 12 12 13 12 11 10 10 11 10 10 10 9 8 8 8 7 7 7 6 5 5 4 4 4 4 4 4 3 3 2 2 3 2 4 6 5 4 4 4 3 3 3 4 4 5 5 4
18 19 18 15 14 15 17 16 14 16 16 16 15 13 13 13 13 12 12 11 12 12 12 11 12 10 9 9 8 8 7 8 7 6 6 7 5 4 5 6 5 4 3 4 4 3 3 1 5 6 5 5 5 5 5 3 4 4 5 5 6 6
10 12 13 14 14 14 12 13 15 13 11 11 10 13 13 13 12 12 12 12 12 12 11 12 11 10 10 8 8 8 8 8 8 6 5 5 5 6 4 4 5 5 4 4 4 3 2 2 5 6 6 6 6 6 5 4 4 5 5 6 6 4
11 10 10 12 13 12 12 12 12 11 11 12 13 12 13 13 12 12 12 13 11 11 10 12 10 10 9 9 9 8 8 8 7 7 7 7 7 7 7 7 6 5 4 4 3 2 3 2 6 7 7 7 7 6 6 4 4 4 5 6 5 4
13 13 13 9 10 11 13 13 11 12 13 11 12 12 12 13 13 13 12 11 10 12 12 12 11 10 9 10 9 9 9 8 9 9 7 6 5 4 4 4 5 5 5 4 3 3 4 4 8 8 7 7 6 7 3 3 4 4 3 3 4 4
7 7 7 9 11 12 12 11 12 12 11 12 12 12 11 11 12 13 13 12 13 14 13 13 12 11 11 11 11 10 10 10 8 7 6 6 7 7 7 7 5 4 5 4 4 4 5 4 6 8 8 7 7 5 1 3 3 4 4 5 5 5
5 6 9 9 10 11 11 11 12 12 12 12 11 11 11 11 14 14 13 13 12 13 13 13 13 13 12 11 13 12 10 8 5 7 8 9 9 8 7 5 4 4 4 5 6 6 5 5 6 9 8 8 8 7 4 4 4 5 5 4 6 5
7 7 7 9 9 8 9 10 12 11 11 10 10 11 11 14 14 13 13 14 13 13 12 11 12 12 13 13 13 11 11 11 10 7 7 6 5 6 5 5 5 4 4 4 5 7 6 5 7 10 10 10 9 6 3 4 3 5 5 4 5 5
6 6 8 9 9 7 9 9 10 10 10 9 9 10 13 14 14 12 11 12 11 10 10 10 12 12 13 13 10 9 9 7 7 8 8 6 6 6 6 4 5 5 5 5 5 6 5 5 6 6 11 10 10 10 5 5 5 5 5 5 6 5
7 8 8 6 7 7 8 8 9 9 8 8 9 12 13 12 11 11 12 9 8 9 10 10 12 13 11 10 10 9 8 8 8 8 8 7 6 6 5 5 4 5 5 5 5 5 5 6 7 8 12 11 11 12 10 4 6 6 5 5 6 6
4 5 5 5 8 8 8 9 9 8 8 8 11 13 13 11 9 8 7 9 10 10 10 10 9 8 9 7 9 9 8 6 7 7 8 6 6 7 7 5 4 5 5 5 6 6 6 7 10 6 10 13 12 12 14 7 6 7 6 7 7 7
5 5 5 4 6 6 6 9 10 8 8 11 14 13 8 6 6 7 8 8 9 10 10 9 10 9 8 8 9 10 9 8 8 7 7 7 6 7 7 6 4 4 6 6 6 6 6 6 7 12 9 12 13 13 13 14 11 13 9 7 6 5
4 5 4 4 5 5 6 10 10 8 9 13 13 5 5 5 6 7 8 9 9 8 8 8 8 7 7 9 9 9 9 8 7 7 7 7 7 7 7 5 5 5 6 7 7 6 6 6 6 9 13 11 14 13 13 13 14 15 8 7 6 7
7 6 5 4 5 5 6 6 10 9 11 11 5 6 8 7 7 8 8 8 8 8 7 6 7 7 7 8 9 10 9 8 8 8 6 7 6 7 7 7 7 8 7 7 7 6 6 6 6 5 9 14 13 13 12 13 14 14 15 9 6 6
5 6 6 4 5 5 5 6 7 10 12 3 5 5 6 7 7 8 9 7 7 7 8 8 6 6 6 7 7 8 8 10 10 9 8 7 7 7 8 7 8 7 7 7 6 6 5 5 5 6 6 7 8 9 11 12 12 13 14 13 9 14
5 5 5 6 5 5 5 6 7 9 2 3 5 6 6 7 8 7 6 7 7 6 8 10 8 7 6 6 6 6 7 7 8 8 9 9 9 8 8 7 7 7 7 7 7 6 5 5 6 6 5 6 6 6 5 6 6 10 11 8 7 9
6 6 6 7 7 6 6 7 9 8 4 2 5 5 6 7 8 9 9 9 8 8 8 8 9 10 8 7 8 9 8 7 8 10 11 12 12 10 8 8 8 9 9 8 7 6 6 6 6 6 7 6 6 6 6 5 5 5 4 6 7 6
8 8 8 9 6 7 7 8 8 5 5 4 4 6 6 7 5 5 5 5 6 7 6 7 8 8 8 7 7 6 7 9 10 10 6 4 5 8 9 9 9 9 8 7 7 7 6 6 7 8 8 9 9 9 6 6 6 6 6 8 12 6
8 8 8 8 5 6 7 7 6 4 4 4 4 5 7 6 6 5 6 6 7 6 7 7 7 7 8 8 8 7 5 6 10 7 7 6 9 14 12 9 8 7 6 7 7 7 8 8 6 9 14 14 15 15 15 14 14 13 10 12 18 7
6 5 6 6 4 5 6 6 4 4 5 6 6 6 5 6 7 6 6 7 7 8 8 7 7 7 7 7 7 7 7 5 7 15 16 12 11 12 15 15 13 12 12 9 6 7 12 10 10 12 12 14 15 16 16 16 16 17 16 16 5 5
5 7 9 4 4 5 4 4 4 5 6 6 7 7 7 7 8 8 8 8 6 7 7 7 7 7 8 7 7 8 7 7 7 6 12 17 15 15 16 15 15 14 14 14 11 7 5 10 13 14 15 17 18 17 17 16 16 16 16 19 10 5
8 6 5 3 3 4 4 4 4 4 6 7 7 8 8 8 8 8 7 7 8 7 8 8 8 8 8 8 8 8 8 8 8 9 7 8 16 18 16 15 14 15 15 15 16 16 13 12 13 15 16 17 16 15 14 15 16 16 17 15 7 4
5 6 5 5 5 5 5 5 4 5 6 6 7 8 8 8 9 8 7 8 9 9 8 8 8 8 8 7 7 7 7 7 7 6 6 6 4 7 10 13 14 14 14 14 15 15 16 16 16 16 16 16 15 15 14 14 11 15 17 11 6 5
4 4 5 5 5 4 5 5 5 5 5 6 7 7 7 7 7 6 7 10 9 8 8 7 7 7 7 7 7 7 7 7 5 6 6 7 7 8 7 4 3 7 11 9 9 11 13 14 14 15 15 15 14 14 14 15 9 8 7 5 3 5
4 5 3 3 4 4 5 5 2 4 4 5 6 6 6 6 6 6 6 5 7 7 6 7 7 6 7 7 7 6 6 6 6 6 6 4 3 4 3 2 2 1 3 6 7 8 9 12 13 14 15 14 15 15 15 9 7 6 7 7 5 5
Wind_Direction
169 168 165 161 163 164 160 156 148 146 149 151 152 152 150 143 137 127 118 118 118 115 114 116 114 113 109 107 105 106 112 115 116 122 129 105 94 92 86 82 77 64 57 71 52 45 44 36 28 22 11 356 18 7 24 12 16 354 340 324 13 338
171 170 168 166 167 165 160 154 148 153 154 153 153 144 138 134 134 133 129 125 122 119 115 114 116 111 111 111 112 115 120 125 123 118 105 112 104 97 93 90 81 77 67 54 62 45 32 38 15 17 6 5 18 13 19 350 6 352 336 328 337 333
170 169 166 161 154 153 152 158 162 161 156 160 159 151 148 143 142 136 133 126 125 125 125 125 120 117 113 111 118 125 134 130 121 118 119 99 98 103 97 89 87 82 83 70 69 83 37 44 23 348 29 11 10 356 359 355 354 353 322 338 331 335
167 161 154 155 157 162 164 165 161 163 165 163 154 148 149 147 147 143 135 129 131 132 130 125 120 117 119 123 129 132 131 125 123 127 107 109 111 103 102 107 104 98 98 109 90 86 42 51 12 356 31 10 2 350 350 357 352 335 321 334 326 333
168 167 167 169 171 170 167 169 171 167 164 159 157 153 159 156 149 141 136 137 137 135 131 125 125 127 132 135 140 137 133 129 123 119 125 122 120 104 107 110 115 112 112 114 111 99 41 53 22 3 30 353 10 341 335 327 334 312 313 326 313 322
162 164 174 174 175 174 175 172 168 167 169 162 157 160 158 153 148 144 139 138 136 136 131 132 135 139 145 145 150 142 135 127 120 117 121 133 124 124 130 125 120 117 133 132 111 86 114 38 37 353 344 353 315 360 310 311 306 308 312 319 318 314
174 183 181 178 174 173 172 173 175 173 171 165 164 163 161 153 150 145 147 146 143 143 140 144 146 152 154 151 149 144 134 129 128 126 133 128 132 142 147 144 141 149 133 139 126 129 147 140 135 292 300 322 6 346 291 282 306 314 320 316 313 320
181 180 181 177 177 177 177 176 175 173 172 173 168 163 160 159 153 153 152 154 149 150 151 154 156 162 157 151 148 144 139 135 133 134 130 134 143 143 137 132 146 146 140 134 146 163 183 160 162 248 246 270 336 327 312 328 335 331 323 311 309 311
187 190 182 180 178 180 180 177 175 174 173 173 171 168 163 163 159 158 157 157 155 156 161 162 166 161 154 152 149 141 134 135 138 137 139 142 151 151 149 148 156 174 150 208 137 180 172 180 246 250 329 47 22 9 354 345 335 320 323 307 306 305
188 184 184 179 182 181 179 179 178 176 176 175 171 168 166 166 161 162 163 161 163 166 166 167 163 153 150 147 144 140 137 136 137 136 135 134 153 151 148 166 161 198 143 198 155 190 133 199 304 290 78 50 28 16 346 342 317 305 305 302 293 290
191 189 185 185 178 180 180 177 179 178 177 176 174 170 174 166 164 167 168 168 170 171 165 159 154 149 147 148 145 142 143 144 142 138 139 153 164 144 150 156 153 190 189 181 174 186 245 148 236 111 101 80 348 330 300 290 295 302 296 296 302 300
192 189 185 182 183 183 181 181 182 181 177 176 176 175 173 164 171 170 173 174 174 167 162 156 150 149 148 150 153 152 149 147 147 145 151 161 152 146 154 169 190 189 203 185 191 173 166 191 205 147 165 187 198 254 271 286 281 285 289 295 298 295
193 188 187 190 188 187 185 183 180 175 176 179 179 177 175 170 172 177 176 176 170 163 152 148 150 149 159 161 151 151 151 150 147 149 155 162 154 167 163 168 205 198 204 183 178 188 198 185 193 210 215 232 260 265 267 273 284 287 292 284 284 290
192 190 193 193 192 188 183 179 179 179 185 181 180 179 171 173 177 177 178 172 165 160 158 157 154 160 165 159 161 161 156 146 146 155 161 162 163 174 167 200 207 206 191 170 177 181 211 215 227 224 232 250 259 262 264 266 276 282 282 287 284 284
197 196 196 191 187 187 190 183 178 186 186 182 182 169 174 178 177 176 175 175 171 167 164 160 163 168 169 169 163 158 151 150 153 158 166 181 179 171 184 205 203 201 188 171 186 203 219 200 248 243 243 254 264 270 276 272 271 270 272 276 281 282
199 197 192 190 190 190 185 183 190 189 180 176 167 173 178 175 179 177 178 177 177 170 164 162 167 173 172 163 159 158 157 159 173 171 167 166 173 183 189 205 202 194 191 182 183 195 208 209 244 245 247 254 259 267 273 265 266 268 270 271 275 281
193 186 183 187 184 178 174 184 186 176 172 175 178 181 178 180 176 179 180 182 175 164 164 167 172 172 167 164 163 164 166 169 165 167 175 179 186 183 191 197 192 199 186 182 165 178 230 229 240 245 247 250 256 263 270 268 268 267 267 271 273 273
190 188 190 175 166 175 181 185 174 173 182 173 178 179 182 178 180 184 182 176 168 170 172 172 175 171 167 165 168 172 174 174 178 177 175 175 187 189 183 203 186 196 185 174 172 193 236 243 244 245 243 246 252 261 262 256 259 259 262 268 268 266
177 179 159 162 173 174 183 172 171 176 172 176 183 178 180 179 184 187 184 179 176 178 177 176 174 174 171 170 173 181 180 176 181 177 166 174 187 185 191 195 191 185 177 182 184 195 233 240 247 248 244 246 246 246 227 246 245 254 255 259 263 264
152 158 160 166 174 178 172 171 172 171 175 182 177 173 178 182 192 191 185 184 181 182 180 180 176 174 173 173 184 186 185 178 171 175 175 180 183 189 191 180 185 190 181 189 196 195 207 241 244 243 248 249 240 230 215 227 239 251 252 253 261 259
160 161 156 161 175 180 166 167 167 169 179 177 174 175 180 194 197 190 187 188 187 186 181 177 176 176 176 184 191 183 176 179 181 172 165 182 181 179 160 164 177 203 210 206 202 204 207 233 249 252 251 246 241 232 216 222 221 241 244 244 250 253
116 135 158 174 179 162 159 157 163 172 174 175 170 180 193 200 199 191 190 191 186 180 176 177 179 182 182 189 184 178 177 155 146 164 170 177 173 162 157 162 176 199 222 213 203 211 207 220 246 249 250 242 234 227 208 207 229 233 247 245 255 250
149 163 168 161 145 144 147 148 154 171 171 166 172 196 203 201 193 191 196 182 173 175 180 181 184 186 190 184 177 166 154 158 162 156 162 170 163 155 155 170 188 203 225 226 225 210 217 208 229 246 246 245 235 230 226 213 227 237 241 245 251 251
114 111 117 137 145 145 147 150 161 169 166 171 195 206 206 198 191 184 174 174 177 180 180 183 186 183 173 156 147 154 160 153 147 159 158 164 168 165 169 168 188 203 230 239 232 226 223 220 223 227 248 245 236 229 227 217 220 232 228 240 244 246
133 145 148 142 142 149 154 155 168 174 177 189 210 209 198 180 171 171 174 176 177 181 182 180 173 169 160 161 162 158 158 152 151 155 156 163 168 166 167 178 191 211 233 241 238 230 223 219 221 230 231 242 238 230 228 232 233 236 234 230 236 242
134 137 133 135 150 155 162 162 172 177 182 209 215 176 152 162 170 166 173 181 183 173 174 172 167 158 157 157 154 154 151 156 154 155 166 168 169 171 176 189 193 212 227 231 236 230 224 215 206 228 231 232 238 233 229 233 238 240 235 237 245 248
152 141 137 152 159 168 170 174 166 178 194 221 170 173 175 174 166 171 181 182 176 172 163 151 157 157 156 158 156 158 160 157 158 162 175 168 178 179 185 194 189 206 218 222 225 223 216 207 204 211 234 235 232 233 233 236 242 245 247 250 246 259
133 143 159 168 171 170 176 183 172 174 215 187 166 174 162 160 166 178 186 176 170 162 149 150 147 148 154 158 170 172 170 167 172 173 170 177 191 192 194 196 192 205 212 223 225 219 214 208 195 207 217 233 241 242 243 242 243 246 248 252 258 256
152 174 178 193 209 185 191 191 205 213 190 149 159 151 156 163 174 180 172 172 164 154 158 162 165 162 161 166 164 169 169 170 175 176 179 183 187 196 199 197 196 202 208 220 223 219 212 212 207 207 211 218 225 229 238 245 246 250 254 259 261 265
182 188 190 208 208 196 195 202 214 217 199 150 142 143 148 167 178 182 186 179 167 169 171 173 165 163 170 180 177 180 182 185 184 189 193 188 189 184 196 193 202 202 204 214 206 205 208 216 208 210 207 214 214 219 218 218 224 224 229 254 257 243
192 202 196 215 200 189 195 212 221 205 194 173 135 143 157 175 183 176 167 160 156 169 172 172 170 177 174 181 191 209 200 188 191 202 218 225 193 196 188 191 204 206 206 198 192 188 212 208 215 216 204 208 217 214 206 219 218 220 213 248 259 229
203 204 209 223 190 186 201 216 220 192 176 160 153 152 166 169 161 169 178 172 174 168 167 177 178 180 179 180 190 192 227 224 210 207 201 216 213 216 218 202 203 198 190 201 213 193 200 208 209 207 216 224 227 229 224 223 228 230 234 233 255 230
224 227 234 232 190 200 208 217 193 168 172 162 163 163 165 154 169 182 185 175 190 184 182 179 179 183 182 181 181 189 196 222 233 223 221 217 218 222 225 225 224 214 200 191 209 224 224 223 220 223 226 232 236 235 239 241 246 250 256 265 270 141
238 228 234 236 211 224 215 206 192 175 177 166 165 168 169 176 176 193 197 193 186 174 177 182 179 175 182 184 182 187 190 198 215 247 229 225 222 223 225 228 230 228 225 218 206 194 239 235 236 239 242 242 243 243 244 246 247 253 256 267 212 186
217 223 235 240 230 235 230 214 213 179 174 172 170 169 178 187 189 197 191 183 180 179 177 177 180 184 183 185 183 189 187 196 201 212 222 224 225 224 225 228 228 229 229 230 231 222 212 211 223 239 244 245 245 247 251 254 256 254 257 246 197 164
212 214 215 212 211 215 214 220 209 185 180 170 170 176 186 189 197 197 188 183 181 176 184 184 185 182 190 189 190 189 190 200 198 202 186 183 191 220 230 231 230 231 235 240 243 245 250 252 252 255 253 249 245 244 247 249 255 258 255 217 188 195
211 215 211 205 209 208 214 225 213 185 170 168 170 175 185 189 189 191 191 179 173 183 184 184 183 182 181 182 187 188 190 195 192 189 191 184 188 197 203 217 245 248 245 249 255 262 261 259 257 255 254 254 253 253 255 257 255 248 234 221 142 181
206 218 216 200 202 208 214 228 194 170 164 163 165 169 178 179 177 180 182 176 176 172 177 178 178 174 177 180 184 179 181 173 173 183 188 182 185 182 184 185 178 175 325 289 280 270 257 258 259 259 258 256 254 254 250 248 239 224 220 216 206 195